Starlink 5810

decayed
NORAD ID: 55776 Int'l Des: 2023-028 Owner: SPXS Country: US Constellation: starlink
LEOCIRCULAR
グループ

Starlink 5810について

説明を読み込み中...

高度履歴

Altitude vs Time

uPlot chart will show altitude changes over time

軌道要素

1 55776U 23028AM 25335.44214378 .14806092 45731-5 14275-3 0 9993
2 55776 69.9800 92.6972 0007096 213.0435 147.0359 16.51028568152299
Epoch: Dec 1, 2025 • Age: 2474 hours

現在のステータス

Position data unavailable
打ち上げ日 Mar 3, 2023
運用期間 3 years
落下予定日 Dec 1, 2025
タイプ internet

技術仕様

分類 Payload
質量 305.00 kg
乾燥質量 290.00 kg
総質量 305.00 kg
長さ 0.20 m
直径 2.80 m
スパン 9.00 m
形状 Box + pan
製造者 SPXS
バスタイプ Starlink
フェーズステータス Reentered
所有者/国 SPXS/US

大規模コンステレーション

Loading constellations...